Marietta McCollum Field, GA

10:06 PM EST on December 10, 2019 (GMT -0500)
Cobb County-McCollum

Weather History for KRYY - November, 2019

Change the Weather History Date:

Thursday, November 14, 2019

  Actual Average (WUND) Record (WUND)
Temperature  
Mean Temperature 38 °F -  
Max Temperature 43 °F - - (-1)
Min Temperature 34 °F - - (-1)
Degree Days  
Heating Degree Days 26    
Moisture  
Dew Point 28 °F    
Average Humidity 65    
Maximum Humidity 96    
Minimum Humidity 51    
Precipitation  
Precipitation 0.00 in - - ()
Sea Level Pressure  
Sea Level Pressure 29.65 in    
Wind  
Wind Speed 4 mph ()    
Max Wind Speed 10 mph    
Max Gust Speed -    
Visibility 9.6 miles    
Events Rain    
Averages and records for this station are not official NWS values.
T = Trace of Precipitation, MM = Missing Value Source: Averaged Metar Reports

Daily Weather History Graph

Daily Weather History Graph

Search for Another Location

Airport or City:

Astronomy

Nov. 14, 2019 Rise Set
Actual Time 7:09 AM EST 5:35 PM EST
Civil Twilight 6:43 AM EST 6:01 PM EST
Nautical Twilight 6:13 AM EST 6:32 PM EST
Astronomical Twilight 5:43 AM EST 7:01 PM EST
Moon 7:24 PM EST (11/14) 9:01 AM EST (11/14)
Length of Visible Light 11h 18m
Length of Day
10h 25m
Waning Gibbous, 95% of the Moon is Illuminated
Nov 14
Waning Gibbous
Nov 19
Last Quarter
Nov 26
New
Dec 4
First Quarter
Dec 12
Full

Hourly Weather History & Observations

Time (EST) Temp. Windchill Dew Point Humidity Pressure Visibility Wind Dir Wind Speed Gust Speed Precip Events Conditions
12:50 AM 35.1 °F 29.3 °F 19.9 °F 54% 29.51 in 10.0 mi Variable 6.9 mph - N/A   Clear
1:50 AM 34.0 °F 26.0 °F 19.9 °F 56% 29.49 in 10.0 mi East 10.4 mph - N/A   Clear
2:50 AM 34.0 °F 29.8 °F 19.9 °F 56% 29.49 in 10.0 mi Variable 4.6 mph - N/A   Clear
3:50 AM 34.0 °F 28.0 °F 19.9 °F 56% 29.47 in 10.0 mi East 6.9 mph - N/A   Mostly Cloudy
4:50 AM 35.1 °F 29.3 °F 19.9 °F 54% 29.47 in 10.0 mi Variable 6.9 mph - N/A   Overcast
5:50 AM 35.1 °F 31.0 °F 19.9 °F 54% 29.49 in 10.0 mi Variable 4.6 mph - N/A   Overcast
6:50 AM 35.1 °F 30.1 °F 19.9 °F 54% 29.51 in 10.0 mi ESE 5.8 mph - N/A   Overcast
7:50 AM 36.0 °F 30.3 °F 19.9 °F 52% 29.51 in 10.0 mi ESE 6.9 mph - N/A   Overcast
8:50 AM 37.9 °F 30.9 °F 21.0 °F 51% 29.52 in 10.0 mi East 10.4 mph - N/A   Overcast
10:50 AM 39.0 °F 33.4 °F 26.1 °F 60% 29.50 in 10.0 mi ESE 8.1 mph - N/A   Overcast
11:50 AM 39.9 °F - 26.1 °F 58% 29.51 in 10.0 mi Calm Calm - N/A   Overcast
12:50 PM 41.0 °F 38.0 °F 26.1 °F 55% 29.49 in 10.0 mi East 4.6 mph - N/A   Overcast
1:50 PM 42.1 °F 40.2 °F 27.0 °F 55% 29.46 in 10.0 mi Variable 3.5 mph - N/A   Overcast
2:50 PM 42.1 °F - 28.0 °F 58% 29.45 in 10.0 mi Calm Calm - 0.00 in   Overcast
3:31 PM 42.8 °F - 28.4 °F 57% 30.26 in 10.0 mi Calm Calm - 0.00 in Rain Light Rain
4:22 PM 42.8 °F 40.1 °F 30.2 °F 61% 30.25 in 10.0 mi East 4.6 mph - 0.00 in Rain Light Rain
4:29 PM 42.8 °F 41.1 °F 30.2 °F 61% 30.25 in 10.0 mi Variable 3.5 mph - 0.00 in   Overcast
4:45 PM 42.8 °F 39.3 °F 30.2 °F 61% 30.25 in 10.0 mi ESE 5.8 mph - 0.00 in   Overcast
4:50 PM 42.1 °F 40.2 °F 30.9 °F 65% 29.44 in 10.0 mi Variable 3.5 mph - 0.00 in   Overcast
5:50 PM 42.1 °F - 32.0 °F 67% 29.44 in 10.0 mi Calm Calm - N/A   Overcast
7:50 PM 43.0 °F - 34.0 °F 71% 29.44 in 10.0 mi Calm Calm - 0.00 in   Overcast
8:43 PM 42.8 °F 40.1 °F 35.6 °F 76% 30.25 in 10.0 mi East 4.6 mph - 0.00 in Rain Light Rain
8:50 PM 42.1 °F 39.2 °F 36.0 °F 79% 29.43 in 10.0 mi East 4.6 mph - 0.00 in Rain Light Rain
9:04 PM 41.0 °F - 37.4 °F 87% 30.25 in 10.0 mi Calm Calm - 0.00 in Rain Light Rain
9:50 PM 41.0 °F - 39.0 °F 93% 29.44 in 7.0 mi Calm Calm - 0.00 in Rain Light Rain
10:50 PM 41.0 °F - 39.9 °F 96% 29.44 in 7.0 mi Calm Calm - 0.00 in Rain Light Rain
11:50 PM 41.0 °F - 39.9 °F 96% 29.43 in 6.0 mi Calm Calm - 0.00 in Rain Light Rain